Vorticity
8 10 12 18 10 7 13 13 2 12 6 -4 11 -4 4 1 4 5 9 5 5 9 9 9 11 7 7 6 9 8 4 12 9 7 5 7 8 7 4 6 3 6 5 6
10 2 16 13 11 11 8 21 15 10 10 -2 18 -2 3 0 3 5 8 6 5 5 8 9 9 10 8 6 6 8 6 4 5 13 13 8 7 6 8 8 8 6 6 7
4 2 5 9 11 9 6 4 12 7 6 2 -4 -4 -2 5 5 8 7 1 9 9 5 10 9 9 8 6 5 6 5 5 4 6 8 7 7 5 6 4 1 3 3 3
5 7 4 6 10 15 11 8 8 12 3 8 5 -8 6 12 3 3 3 5 6 8 9 7 8 9 12 9 5 8 6 4 6 6 5 8 7 8 8 5 4 3 2 2
-2 8 5 8 9 15 18 9 9 7 11 7 4 12 4 2 -1 3 6 2 11 10 12 4 9 8 8 12 11 11 9 9 7 5 5 4 8 9 8 4 3 3 3 3
4 6 5 6 4 6 15 8 8 9 9 5 13 6 29 8 10 4 3 1 6 12 11 7 9 10 6 5 6 6 6 4 5 4 5 6 5 4 5 4 3 3 2 3
3 5 5 3 5 4 5 12 6 1 -7 13 12 -0 24 5 17 -0 5 3 8 15 7 8 9 9 7 6 6 5 4 4 4 4 4 5 6 5 5 5 4 4 4 3
8 11 5 5 4 7 6 8 6 5 7 4 7 19 24 24 20 8 0 4 8 14 6 7 8 10 6 6 4 5 7 9 9 9 9 8 8 9 9 8 6 6 7 5
7 6 4 10 5 9 5 -2 26 -1 12 -6 4 18 13 29 27 8 2 0 10 18 6 6 11 9 6 6 10 9 7 7 6 6 4 5 4 5 6 6 5 5 6 6
4 5 4 4 5 3 3 8 6 4 3 6 8 7 11 27 20 20 -3 5 3 12 12 10 5 5 9 11 8 4 4 3 7 7 6 9 7 6 7 4 7 8 8 8
7 3 6 5 5 2 6 2 2 5 8 6 5 2 16 20 20 31 4 -1 1 9 4 22 7 5 1 5 5 2 2 6 7 11 8 10 11 11 13 14 10 6 5 6
16 12 8 4 6 5 2 9 8 4 3 -2 1 1 12 6 16 22 5 19 10 7 8 17 5 7 3 2 3 7 1 8 11 4 2 6 6 10 12 13 14 15 13 10
4 7 11 9 9 4 3 3 6 3 4 6 6 4 -5 13 20 13 20 1 -4 5 12 10 0 6 1 4 4 -0 5 6 2 0 3 4 7 7 11 8 8 8 13 11
5 7 3 12 10 23 7 3 5 1 3 1 -0 -0 3 -0 20 19 13 18 4 5 5 5 -1 4 7 2 1 2 6 5 6 3 -0 5 7 7 6 8 9 12 11 9
7 5 7 4 -1 1 4 3 7 5 6 4 3 4 -0 1 1 16 18 17 7 10 3 3 10 1 4 3 1 0 1 2 5 9 8 8 9 13 4 4 6 11 8 5
6 6 2 1 9 8 4 5 8 2 4 5 5 6 9 5 6 11 15 18 11 15 3 1 12 9 1 3 2 2 1 6 10 11 7 6 8 12 8 4 5 6 2 1
3 6 5 3 5 8 10 2 4 4 6 6 5 -1 4 2 4 9 11 15 12 10 13 7 -1 2 8 12 9 2 0 -3 3 9 8 6 8 7 12 7 6 2 1 1
6 6 8 3 6 4 -6 1 8 -0 6 6 6 3 3 5 8 5 13 12 12 9 17 13 12 12 9 8 4 7 4 1 -0 3 -7 17 23 3 11 1 7 6 4 2
9 8 6 8 8 1 7 -1 7 0 6 2 5 5 6 6 6 8 12 11 11 9 6 17 7 4 21 15 16 18 0 6 1 5 8 6 14 3 11 -1 0 2 2 3
10 5 3 7 4 7 -8 14 5 2 4 5 5 1 4 5 6 2 7 14 8 8 3 7 8 10 8 21 31 16 4 13 25 3 2 -1 7 18 11 5 -0 4 5 -1
4 4 6 7 5 2 8 -1 3 -1 23 4 4 5 3 3 7 8 -1 4 12 10 7 5 6 6 5 5 6 14 14 8 18 12 10 6 3 10 10 9 12 11 8 6
42 -5 5 2 8 4 0 10 -0 2 1 5 10 4 3 4 5 8 7 4 4 13 10 10 8 7 8 12 5 3 5 9 9 9 8 11 17 4 -0 9 7 7 6 4
43 25 15 1 3 -6 14 -5 7 8 2 2 8 7 12 5 4 3 4 5 -2 13 -6 11 7 3 9 6 9 10 12 4 6 6 6 4 -0 5 6 8 9 11 10 12
36 37 27 21 2 10 -6 10 7 1 6 8 4 3 2 2 14 15 8 8 5 12 4 19 9 13 15 10 9 10 12 13 11 9 9 10 10 10 5 17 4 -1 11 6
31 38 39 41 16 17 9 6 -7 5 5 2 5 3 4 2 6 7 7 6 12 9 3 4 7 15 12 5 17 14 10 10 13 9 7 6 7 6 2 7 4 0 2 -1
21 47 35 41 38 29 17 16 9 7 -1 -1 7 0 0 8 9 9 2 11 2 -3 2 4 8 13 8 10 9 9 14 15 12 8 8 8 8 9 9 9 7 8 8 8
Height
5844 5846 5849 5853 5856 5859 5863 5866 5871 5875 5877 5881 5884 5885 5887 5888 5889 5890 5892 5891 5891 5892 5894 5896 5899 5900 5902 5906 5909 5912 5915 5918 5922 5924 5926 5927 5929 5932 5933 5934 5935 5935 5936 5936
5840 5844 5843 5844 5846 5851 5857 5861 5867 5870 5871 5875 5879 5882 5883 5885 5887 5888 5890 5890 5889 5889 5891 5895 5897 5900 5902 5905 5908 5911 5914 5917 5920 5923 5925 5927 5929 5931 5933 5934 5935 5935 5936 5936
5834 5837 5836 5839 5841 5844 5848 5854 5860 5864 5866 5871 5874 5878 5880 5882 5883 5885 5887 5888 5888 5890 5889 5892 5896 5899 5901 5904 5908 5909 5912 5915 5918 5922 5925 5927 5929 5930 5931 5934 5935 5935 5936 5937
5825 5828 5831 5834 5837 5841 5845 5851 5853 5857 5858 5864 5869 5873 5877 5879 5880 5881 5884 5886 5888 5889 5891 5890 5894 5897 5901 5903 5906 5907 5910 5913 5916 5920 5923 5925 5927 5929 5930 5932 5933 5934 5935 5936
5821 5824 5828 5831 5836 5836 5843 5842 5845 5850 5853 5857 5859 5864 5869 5871 5874 5879 5882 5883 5885 5886 5889 5889 5891 5895 5898 5901 5905 5908 5909 5911 5915 5919 5921 5923 5925 5927 5929 5930 5931 5932 5934 5935
5809 5814 5816 5824 5824 5829 5831 5834 5838 5843 5848 5843 5854 5857 5863 5865 5872 5875 5878 5880 5881 5884 5887 5889 5889 5892 5897 5900 5904 5908 5910 5911 5914 5917 5919 5922 5923 5926 5927 5927 5928 5930 5931 5933
5800 5804 5810 5813 5816 5821 5823 5826 5831 5835 5836 5838 5850 5850 5858 5857 5866 5871 5875 5877 5878 5880 5884 5886 5889 5892 5896 5900 5903 5906 5910 5912 5913 5915 5918 5919 5921 5923 5925 5926 5926 5927 5928 5929
5789 5795 5803 5809 5811 5816 5818 5821 5826 5828 5832 5838 5842 5842 5850 5856 5862 5866 5869 5872 5874 5876 5880 5884 5887 5890 5893 5897 5901 5904 5907 5910 5912 5913 5915 5916 5917 5920 5921 5923 5924 5924 5925 5926
5777 5785 5791 5798 5805 5809 5812 5814 5827 5824 5827 5831 5838 5841 5845 5850 5855 5860 5866 5868 5870 5874 5877 5883 5885 5887 5890 5893 5898 5901 5903 5906 5909 5911 5911 5912 5913 5915 5916 5917 5918 5919 5921 5923
5764 5772 5778 5788 5794 5797 5801 5814 5809 5815 5821 5827 5833 5837 5840 5846 5850 5855 5860 5864 5868 5871 5875 5880 5883 5886 5888 5892 5895 5897 5900 5904 5906 5907 5909 5911 5912 5912 5913 5914 5916 5917 5919 5921
5751 5762 5767 5774 5781 5786 5792 5795 5802 5811 5817 5822 5828 5834 5835 5841 5845 5850 5856 5860 5864 5868 5873 5877 5880 5884 5887 5888 5892 5896 5898 5900 5902 5904 5906 5908 5908 5908 5909 5911 5912 5914 5914 5916
5740 5748 5754 5766 5773 5778 5785 5792 5799 5802 5811 5816 5821 5829 5829 5836 5840 5843 5849 5855 5859 5863 5867 5871 5876 5879 5882 5886 5889 5892 5894 5896 5900 5902 5903 5904 5905 5906 5907 5908 5909 5909 5911 5911
5723 5735 5743 5750 5759 5764 5770 5781 5786 5793 5804 5808 5815 5821 5824 5830 5835 5839 5843 5846 5850 5856 5862 5866 5870 5875 5879 5882 5886 5889 5891 5894 5895 5897 5900 5901 5902 5903 5905 5906 5906 5907 5908 5908
5711 5722 5731 5742 5754 5757 5762 5769 5774 5783 5793 5802 5807 5813 5819 5825 5829 5833 5837 5842 5845 5850 5854 5859 5865 5870 5875 5878 5881 5884 5887 5889 5891 5893 5895 5897 5899 5900 5901 5901 5902 5904 5904 5905
5695 5706 5717 5726 5731 5740 5748 5758 5765 5772 5785 5791 5803 5808 5813 5820 5825 5828 5830 5833 5839 5843 5847 5851 5856 5862 5866 5870 5875 5879 5882 5884 5886 5888 5891 5894 5896 5896 5896 5898 5898 5899 5900 5901
5679 5689 5701 5712 5722 5731 5737 5745 5752 5764 5774 5782 5793 5799 5806 5812 5819 5824 5828 5830 5833 5837 5840 5844 5850 5853 5859 5864 5868 5872 5876 5878 5880 5884 5887 5889 5890 5891 5892 5893 5894 5894 5896 5897
5665 5673 5689 5701 5710 5719 5723 5736 5743 5754 5762 5772 5784 5792 5800 5805 5812 5818 5820 5824 5826 5829 5833 5838 5843 5848 5853 5858 5862 5867 5870 5871 5876 5878 5881 5882 5885 5886 5887 5888 5889 5890 5891 5891
5647 5660 5674 5686 5691 5703 5719 5724 5728 5739 5752 5762 5772 5778 5788 5794 5802 5807 5812 5816 5820 5824 5828 5832 5836 5839 5845 5850 5854 5860 5864 5867 5870 5873 5875 5877 5878 5880 5880 5882 5885 5885 5886 5887
5632 5645 5657 5671 5680 5696 5700 5707 5716 5723 5739 5747 5758 5765 5775 5783 5791 5799 5806 5811 5815 5818 5822 5825 5829 5834 5838 5843 5848 5851 5855 5860 5862 5866 5870 5871 5872 5874 5874 5876 5878 5879 5879 5880
5617 5628 5641 5655 5666 5679 5692 5696 5703 5708 5728 5735 5744 5756 5763 5772 5780 5793 5797 5799 5804 5808 5813 5818 5823 5827 5832 5836 5840 5843 5847 5851 5856 5859 5862 5863 5865 5867 5869 5871 5870 5871 5872 5873
5602 5612 5625 5638 5648 5662 5673 5680 5691 5700 5714 5722 5731 5742 5749 5761 5769 5781 5784 5791 5797 5801 5805 5809 5813 5819 5824 5829 5831 5834 5837 5843 5847 5849 5853 5856 5858 5860 5862 5864 5865 5865 5865 5864
5590 5600 5612 5623 5632 5641 5656 5667 5682 5683 5694 5705 5717 5731 5739 5750 5758 5766 5774 5782 5788 5792 5797 5801 5806 5811 5815 5819 5822 5826 5830 5834 5838 5841 5845 5848 5850 5852 5853 5855 5856 5856 5856 5856
5580 5585 5594 5607 5621 5630 5639 5650 5661 5675 5682 5696 5707 5720 5730 5739 5748 5755 5764 5772 5777 5782 5787 5792 5796 5801 5806 5810 5814 5818 5821 5824 5827 5830 5834 5837 5839 5841 5843 5845 5846 5846 5846 5845
5568 5575 5583 5591 5608 5615 5626 5641 5652 5658 5672 5681 5695 5706 5719 5728 5736 5745 5751 5759 5765 5771 5777 5782 5787 5791 5796 5801 5804 5808 5811 5815 5818 5821 5823 5825 5828 5829 5831 5831 5833 5833 5834 5835
5560 5566 5576 5583 5592 5602 5610 5624 5635 5645 5657 5670 5680 5693 5706 5716 5725 5735 5742 5748 5753 5761 5765 5771 5776 5780 5785 5789 5793 5797 5801 5804 5807 5809 5812 5814 5816 5817 5818 5818 5819 5820 5821 5821
5553 5558 5563 5575 5580 5583 5596 5608 5621 5636 5647 5659 5670 5682 5694 5705 5713 5721 5729 5737 5744 5748 5754 5760 5765 5770 5773 5777 5781 5786 5789 5793 5796 5798 5799 5801 5803 5804 5805 5806 5808 5808 5808 5809